Regional Weather Roundup
Issued by NWS

Home | Current Version | Previous Version | Text Only | Print | Product List | Glossary On
Versions: 1 2 3 4 5 6 7 8 9 10 11 12 13 14 15 16 17 18 19 20 21 22 23 24 25 26 27 28 29 30 31 32 33 34 35 36 37 38 39 40 41 42 43 44 45 46 47 48 49 50
409
ASUS44 KLIX 310201
RWRLA
LOUISIANA WEATHER ROUNDUP
NATIONAL WEATHER SERVICE NEW ORLEANS LA
900 PM CDT THU OCT 30 2014

NOTE: "FAIR" INDICATES FEW OR NO CLOUDS BELOW 12,000 FEET WITH NO
      SIGNIFICANT WEATHER AND/OR OBSTRUCTIONS TO VISIBILITY.
      SKY/WX - SKY CONDITION AND SIGNIFICANT WEATHER.
      TMP - AIR TEMPERATURE.    DP   - DEWPOINT TEMPERATURE.
      RH  - RELATIVE HUMIDITY.  PRES - PRESSURE.
      HX  - HEAT INDEX.         WCI  - WIND CHILL INDEX.

*  THESE STATIONS ARE NOT NWS OR FAA STATIONS AND ARE NOT UNDER
   NWS QUALITY CONTROL.

LAZ040-048-061>063-065-066-069-310300-
SOUTHEAST LOUISIANA

CITY           SKY/WX    TMP DP  RH WIND       PRES   REMARKS
N.O. AUDUBON     N/A     61 N/A N/A MISG        N/A
N.O. INTL ARPT CLEAR     58  48  69 NW5       30.05R
N.O. LAKEFRONT CLEAR     70  44  39 N12       30.05R
N.O. DOWNTOWN* FAIR      70  43  37 CALM      30.05R
SLIDELL        CLEAR     53  48  83 CALM      30.04R
BATON ROUGE    CLEAR     55  49  80 CALM      30.06S
BOOTHVILLE     CLEAR     64  54  69 CALM      30.04S
BELLE CHASSE   CLEAR     54  48  80 CALM      30.04R
BOGALUSA*        N/A     53  46  79 CALM      30.06S
NEW ROADS*     FAIR      55  49  81 CALM      30.07R
GONZALES*      NOT AVBL
HAMMOND*       NOT AVBL
HOUMA*         CLEAR     56  51  84 CALM      30.06R
PORT FOURCHON* CLEAR     66  50  55 N6        30.07S

$$

LAZ041-044-053-054-310300-
SOUTHWEST LOUISIANA

CITY           SKY/WX    TMP DP  RH WIND       PRES   REMARKS
LAKE CHARLES   CLEAR     56  50  80 CALM      30.08R
LAFAYETTE      CLEAR     57  53  86 CALM      30.07R
PATTERSON      CLEAR     55  52  88 CALM      30.08S
SALT POINT       N/A     63  51  65 N3        30.05S
NEW IBERIA     CLEAR     58  52  80 NW5       30.07R
CHENAULT AIRPK CLEAR     57  52  82 CALM      30.08R

$$

LAZ027-028-310300-
CENTRAL LOUISIANA

CITY           SKY/WX    TMP DP  RH WIND       PRES   REMARKS
FORT POLK      NOT AVBL
ALEXANDRIA INT CLEAR     52  50  93 CALM      30.07R
ALEXANDRIA     CLEAR     51  49  92 CALM      30.08R

$$

LAZ001-002-310300-
NORTHWEST LOUISIANA

CITY           SKY/WX    TMP DP  RH WIND       PRES   REMARKS
SHREVEPORT     PTCLDY    58  50  75 CALM      30.07S
BARKSDALE AFB  MOCLDY    57  50  79 CALM      30.08S
DTN SHREVEPORT PTCLDY    59  51  75 CALM      30.08S

$$

LAZ014-016-310300-
NORTHEAST LOUISIANA

CITY           SKY/WX    TMP DP  RH WIND       PRES   REMARKS
MONROE         PTCLDY    56  51  84 CALM      30.07F
TALLULAH       CLEAR     48  46  93 CALM      30.06F

$$




USA.gov is the U.S. government's official web portal to all federal, state and local government web resources and services.